Regional Weather Roundup
Issued by NWS Upton, NY

Home | Current Version | Previous Version | Text Only | Print | Product List | Glossary On
Versions: 1 2 3 4 5 6 7 8 9 10 11 12 13 14 15 16 17 18 19 20 21 22 23 24 25 26 27 28 29 30 31 32 33 34 35 36 37 38 39 40 41 42 43 44 45 46 47 48 49 50
000
ASUS41 KOKX 070204
RWROKX

REGIONAL WEATHER ROUNDUP
NATIONAL WEATHER SERVICE NEW YORK NY
900 PM EST SAT FEB 06 2016

NOTE: "FAIR" INDICATES FEW OR NO CLOUDS BELOW 12,000 FEET WITH NO
SIGNIFICANT WEATHER AND/OR OBSTRUCTIONS TO VISIBILITY.

NYZ071-072-176-178-NJZ106-104-070300-
NEW YORK CITY METRO AREA


CITY           SKY/WX    TMP DP  RH WIND       PRES   REMARKS
CENTRAL PARK   CLOUDY    38  20  48 VRB3      30.30F
LAGUARDIA APRT CLOUDY    39  21  48 SW9       30.29S WCI  33
KENNEDY INTL   MOCLDY    37  24  59 SW12      30.31S WCI  29
NEWARK/LIBERTY MOCLDY    34  23  64 S6        30.30S WCI  29
BRNX BOT. GARD   N/A     39  21  48 SW8       30.30R WCI  34
TETERBORO      CLOUDY    33  22  63 SW5       30.28S WCI  29
$$

NYZ177-179-078>081-070300-
LONG ISLAND NEW YORK

CITY           SKY/WX    TMP DP  RH WIND       PRES   REMARKS
FARMINGDALE    CLEAR     33  23  66 SW3       30.30S
ISLIP          PTCLDY    32  25  75 SW6       30.28S WCI  26
SHIRLEY        CLEAR     33  27  78 SW3       30.30F
RIVERHEAD        N/A     32  25  74 CALM      30.32S
WESTHAMPTON    CLEAR     23  20  88 CALM      30.31S
EAST HAMPTON   FAIR      27  26  95 CALM      30.30S
MONTAUK POINT    N/A     36  29  75 SW5       30.30F WCI  32
$$

NYZ052-065-067-070300-
HUDSON VALLEY

CITY           SKY/WX    TMP DP  RH WIND       PRES   REMARKS
WHITE PLAINS   CLEAR     34  19  54 CALM      30.26S
NEWBURGH       CLEAR     34  21  60 W8        30.24F WCI  27
MONTGOMERY     CLEAR     29  20  69 S5        30.23F WCI  24
POUGHKEEPSIE   CLEAR     32  19  58 SE5       30.25S WCI  27
ALBANY         MOCLDY    37  18  46 S9        30.20S WCI  30
$$

NJZ001-105-106-008-010-013-015-019>022-104-070300-
NEW JERSEY

CITY           SKY/WX    TMP DP  RH WIND       PRES   REMARKS
NEWARK/LIBERTY MOCLDY    34  23  64 S6        30.30S WCI  29
TETERBORO      CLOUDY    33  22  63 SW5       30.28S WCI  29
CALDWELL       CLEAR     31  21  66 CALM      30.29S
MORRISTOWN     PTCLDY    27  23  86 CALM      30.29S
SOMERVILLE     CLEAR     26  20  77 CALM      30.28S
SUSSEX         CLEAR     28  20  71 CALM      30.25F
ANDOVER          N/A     27  21  78 CALM      30.26S
TRENTON        PTCLDY    33  21  61 S3        30.29S
MILLVILLE      CLOUDY    28  27  96 CALM      30.32S
ATLANTIC CITY  PTCLDY    33  25  72 SW3       30.33R
WRIGHTSTOWN    MOCLDY    32  28  87 SW5       30.28S WCI  27
TOMS RIVER     MOCLDY    30  23  74 SW3       30.32S
BELMAR         CLOUDY    34  19  55 SW6       30.30S WCI  29
$$

PAZ047>061-062-071-070300-
EASTERN PENNSYLVANIA

CITY           SKY/WX    TMP DP  RH WIND       PRES   REMARKS
PHILADELPHIA   MOCLDY    36  25  64 S7        30.32S WCI  30
ALLENTOWN      CLOUDY    31  19  61 W3        30.28R
SCRANTON       CLOUDY    32  18  56 S3        30.21S
$$

CTZ002-004>006-009-010-012-RIZ004-006-007-MAZ004-011-015-070300-
SOUTHERN NEW ENGLAND
 IN CT

CITY           SKY/WX    TMP DP  RH WIND       PRES   REMARKS
BRADLEY INTL   CLEAR     29  23  78 S7        30.25F WCI  22
HARTFORD       CLEAR     27  24  89 SE5       30.28S WCI  22
DANBURY        CLEAR     33  17  51 SW7       30.26F WCI  27
WTRBRY/OXFORD  PTCLDY    30  16  55 CALM      30.25F
BRIDGEPORT     CLEAR     38  27  64 SW10      30.28F WCI  31
MERIDEN        CLEAR     24  20  84 CALM      30.28F
NEW HAVEN      CLEAR     37  29  72 SW7       30.28S WCI  32
CHESTER        FAIR      32  30  93 SW5       30.28S WCI  27
GROTON         CLEAR     36  30  79 W8        30.29S WCI  30
WILLIMANTIC    HAZE      25  20  81 CALM      30.28S VSB 3/4

 IN RI

CITY           SKY/WX    TMP DP  RH WIND       PRES   REMARKS
PROVIDENCE     PTCLDY    31  25  78 W8        30.29S WCI  23
BLOCK ISLAND   PTCLDY    36  28  75 SW10      30.28F WCI  28
WESTERLY       CLEAR     35  27  72 SW7       30.30S WCI  29

 IN MA

CITY           SKY/WX    TMP DP  RH WIND       PRES   REMARKS
BOSTON         PTCLDY    31  24  75 SW15      30.26S WCI  20
WORCESTER      CLEAR     26  20  77 SW12      30.20F WCI  16
WESTFIELD      CLEAR     30  21  69 S12       30.24F WCI  20
PROVINCETOWN   PTCLDY    34  29  82 SW14      30.28F WCI  25
NANTUCKET      PTCLDY    39  29  67 SW14      30.30F WCI  31
$$

ANZ330-335-338-340-345-350-353-355-070300-
COASTAL MARINE OBSERVATIONS


STATION/POSITION TIME  SKY/WX   TEMP    WIND        PRES    VSBY  WAVE
                                AIR SEA DIR/SP/G                  HT/PER
                 (UTC)          (F)     (DEG/KT/KT) (MB)    (MI)  (FT/S)
NY HARB ENTRANCE 0150            40 44  240/ 14/ 16 1025.8          2/10
4S FIRE IS       NOT AVBL
20S FIRE ISLAND  0050            40 44  230/ 14/ 16 1026.1          3/ 4
GREAT SOUTH BAY  NOT AVBL
23SW MTP         0150            41 46  240/ 16/ 17 1025.5          3/ 4
HUDSON CANYON    0050            42 51              1026.4          2/ 9
KINGS POINT      0100            38 39  240/  8/  9 1025.3
EXECUTION ROCKS  NOT AVBL
CENTRAL LI SOUND 0100            38     220/ 12/ 14   N/A           1/ 4
EASTERN LI SOUND 0100            38 41  250/ 12/ 16   N/A
ROBBINS REEF     0100            38     210/  9/ 12 1025.2
$$


>>>>>>>>>>>>>>>>>>>>>>>>>>>> KEY <<<<<<<<<<<<<<<<<<<<<<<<<<<
>                                                          <
>     SKY/WX - SKY CONDITION/PRESENT WEATHER               <
>     TMP    - TEMPERATURE IN FAHRENHEIT                   <
>     DP     - DEWPOINT IN FAHRENHEIT                      <
>     RH     - RELATIVE HUMIDITY IN PERCENT                <
>     WIND   - DIRECTION AND SPEED IN MPH                  <
>     PRES   - MEAN SEA LEVEL PRESSURE IN INCHES OF HG     <
>     WCI    - WIND CHILL INDEX                            <
>     VSB    - VISIBILITY IN MILES                         <
>     HX     - HEAT INDEX                                  <
>     TC     - TEMPERATURE IN CELSIUS                      <
>     VRB    - VARIABLE WIND DIRECTION                     <
>                                                          <
>>>>>>>>>>>>>>>>>>>>>>>>>>>> KEY <<<<<<<<<<<<<<<<<<<<<<<<<<<





USA.gov is the U.S. government's official web portal to all federal, state and local government web resources and services.